Date String (YYYY-MM-DD hh:mm:ss) UTC,Instrument flags,Ambient pressure (hPa),Sample flow (lpm),Bypass flow (lpm),Sample temperature (°C),Ambient temperature (°C),ASC tube jacket temperature (°C),LED temperature (°C),Box temperature (°C),Sample RH (%),Span deviation,Mass concentration (μg/m³),Mass concentration (μg/m³),Mass concentration (μg/m³)
DateTimeUTC,F1_M11,P_M11,Q1_M11,Q2_M11,T1_M11,T2_M11,T3_M11,T4_M11,T5_M11,U1_M11,ZSPAN_M11,X0_M11,X2_M11,X1_M11
2022-10-11 18:00:00,,0820.6,5.00,0.00,29.6,28.2,00.0,38.3,31.5,08.2,0000.0,0011.38,0005.33,0004.99
2022-10-11 18:01:00,,0820.6,5.01,0.00,29.7,28.3,00.0,38.3,31.6,08.1,0000.0,0011.45,0005.32,0004.98
2022-10-11 18:02:00,,0820.6,4.99,0.00,29.7,28.4,00.0,38.3,31.6,08.1,0000.0,0012.08,0005.32,0004.97
2022-10-11 18:03:00,,0820.6,5.00,0.00,29.7,28.5,00.0,38.3,31.7,08.0,0000.0,0014.31,0005.31,0004.96
2022-10-11 18:04:00,,0820.6,5.00,0.00,29.8,28.6,00.0,38.4,31.7,08.1,0000.0,0014.56,0005.33,0004.96
2022-10-11 18:05:00,,0820.6,5.00,0.00,29.8,28.4,00.0,38.4,31.8,08.1,0000.0,0015.08,0005.42,0004.97
2022-10-11 18:06:00,,0820.6,5.01,0.00,29.8,27.3,00.0,38.4,31.7,08.2,0000.0,0014.81,0005.44,0004.97
2022-10-11 18:07:00,,0820.6,5.00,0.00,29.8,27.0,00.0,38.3,31.6,08.2,0000.0,0014.92,0005.42,0004.97
2022-10-11 18:08:00,,0820.6,4.99,0.00,29.7,27.2,00.0,38.3,31.5,08.1,0000.0,0014.35,0005.41,0004.96
2022-10-11 18:09:00,,0820.6,4.99,0.00,29.7,27.4,00.0,38.3,31.4,08.2,0000.0,0013.86,0005.45,0004.95
2022-10-11 18:10:00,,0820.6,5.00,0.00,29.7,27.6,00.0,38.3,31.4,08.2,0000.0,0013.92,0005.45,0004.95
2022-10-11 18:11:00,,0820.6,4.99,0.00,29.7,27.9,00.0,38.3,31.5,08.0,0000.0,0013.67,0005.50,0004.97
2022-10-11 18:12:00,,0820.6,5.00,0.00,29.7,28.0,00.0,38.4,31.5,08.1,0000.0,0014.22,0005.50,0004.99
2022-10-11 18:13:00,,0820.6,5.01,0.00,29.7,28.2,00.0,38.4,31.5,08.2,0000.0,0013.95,0005.61,0005.01
2022-10-11 18:14:00,,0820.6,5.00,0.00,29.7,28.3,00.0,38.4,31.6,07.8,0000.0,0011.96,0005.68,0005.03
2022-10-11 18:15:00,,0820.5,4.99,0.00,29.7,28.4,00.0,38.4,31.6,07.6,0000.0,0012.28,0005.69,0005.03
2022-10-11 18:16:00,,0820.4,5.00,0.00,29.7,28.5,00.0,38.4,31.6,07.9,0000.0,0011.96,0005.65,0005.06
2022-10-11 18:17:00,,0820.4,5.01,0.00,29.8,28.6,00.0,38.4,31.7,07.7,0000.0,0012.47,0005.75,0005.12
2022-10-11 18:18:00,,0820.5,5.01,0.00,29.8,28.6,00.0,38.4,31.7,07.8,0002.1,0012.20,0005.82,0005.17
2022-10-11 18:19:00,,0820.6,5.00,0.00,29.8,28.7,00.0,38.4,31.7,07.9,0002.8,0012.28,0005.90,0005.25
2022-10-11 18:20:00,,0820.6,5.00,0.00,29.8,27.8,00.0,38.4,31.7,08.0,0002.8,0012.32,0005.91,0005.29
2022-10-11 18:21:00,,0820.6,5.00,0.00,29.8,27.0,00.0,38.4,31.7,08.1,0002.7,0011.79,0005.95,0005.33
2022-10-11 18:22:00,,0820.6,5.00,0.00,29.8,27.1,00.0,38.4,31.6,08.2,0002.0,0012.82,0005.97,0005.36
2022-10-11 18:23:00,,0820.6,5.00,0.00,29.7,27.3,00.0,38.4,31.5,07.9,0001.2,0012.37,0006.00,0005.38
2022-10-11 18:24:00,,0820.6,5.00,0.00,29.7,27.5,00.0,38.4,31.4,08.0,0000.0,0012.45,0005.90,0005.36
2022-10-11 18:25:00,,0820.6,5.01,0.00,29.7,27.7,00.0,38.4,31.4,08.2,0000.0,0012.83,0005.87,0005.37
2022-10-11 18:26:00,,0820.6,5.01,0.00,29.7,27.9,00.0,38.4,31.5,08.4,0000.0,0012.45,0005.88,0005.37
2022-10-11 18:27:00,,0820.5,4.99,0.00,29.7,28.1,00.0,38.4,31.5,08.6,0000.0,0012.36,0005.87,0005.35
2022-10-11 18:28:00,,0820.5,5.00,0.00,29.7,28.2,00.0,38.4,31.5,08.7,0000.0,0012.40,0005.81,0005.31
2022-10-11 18:29:00,,0820.4,5.01,0.00,29.7,28.3,00.0,38.4,31.6,08.6,0000.0,0012.36,0005.76,0005.27
2022-10-11 18:30:00,,0820.3,5.01,0.00,29.7,28.4,00.0,38.4,31.6,08.5,0000.0,0013.00,0005.74,0005.22
2022-10-11 18:31:00,,0820.4,4.99,0.00,29.7,28.5,00.0,38.4,31.6,08.3,0000.0,0012.87,0005.73,0005.19
2022-10-11 18:32:00,,0820.5,5.00,0.00,29.8,28.5,00.0,38.4,31.6,08.4,0000.0,0012.94,0005.72,0005.17
2022-10-11 18:33:00,,0820.5,5.01,0.00,29.8,28.6,00.0,38.5,31.7,08.4,0000.0,0012.09,0005.68,0005.14
2022-10-11 18:34:00,,0820.6,4.99,0.00,29.8,28.6,00.0,38.5,31.7,08.5,0000.0,0011.85,0005.66,0005.13
2022-10-11 18:35:00,,0820.6,5.01,0.00,29.8,28.7,00.0,38.5,31.7,08.6,0000.0,0011.65,0005.70,0005.14
2022-10-11 18:36:00,,0820.6,5.00,0.00,29.9,28.4,00.0,38.5,31.8,08.5,0000.0,0010.97,0005.70,0005.12
2022-10-11 18:37:00,,0820.5,5.01,0.00,29.9,27.2,00.0,38.5,31.7,08.4,0000.0,0010.87,0005.70,0005.13
2022-10-11 18:38:00,,0820.5,4.99,0.00,29.8,27.0,00.0,38.4,31.7,08.3,0000.0,0010.75,0005.67,0005.12
2022-10-11 18:39:00,,0820.5,5.00,0.00,29.8,27.2,00.0,38.4,31.6,08.6,0000.0,0010.14,0005.64,0005.12
2022-10-11 18:40:00,,0820.4,5.01,0.00,29.8,27.4,00.0,38.4,31.5,08.8,0000.0,0010.68,0005.64,0005.10
2022-10-11 18:41:00,,0820.4,4.98,0.00,29.7,27.6,00.0,38.4,31.5,08.6,0000.0,0010.21,0005.58,0005.08
2022-10-11 18:42:00,,0820.5,5.01,0.00,29.7,27.8,00.0,38.4,31.5,08.8,0000.0,0010.14,0005.54,0005.06
2022-10-11 18:43:00,,0820.5,5.00,0.00,29.7,28.0,00.0,38.4,31.6,08.5,0000.0,0010.13,0005.53,0005.04
2022-10-11 18:44:00,,0820.5,4.99,0.00,29.7,28.2,00.0,38.4,31.6,08.3,0000.0,0009.61,0005.50,0005.02
2022-10-11 18:45:00,,0820.5,4.99,0.00,29.8,28.3,00.0,38.4,31.6,08.4,0000.0,0009.79,0005.47,0005.00
2022-10-11 18:46:00,,0820.5,5.01,0.00,29.8,28.4,00.0,38.5,31.7,08.5,0000.0,0010.37,0005.43,0004.99
2022-10-11 18:47:00,,0820.5,5.01,0.00,29.8,28.5,00.0,38.5,31.7,08.6,0000.0,0010.20,0005.38,0004.97
2022-10-11 18:48:00,,0820.5,4.99,0.00,29.8,28.6,00.0,38.5,31.7,08.7,0000.0,0010.14,0005.37,0004.96
2022-10-11 18:49:00,,0820.3,4.99,0.00,29.8,28.7,00.0,38.5,31.7,08.7,0000.0,0010.20,0005.37,0004.95
2022-10-11 18:50:00,,0820.2,5.02,0.00,29.9,28.7,00.0,38.5,31.8,08.4,0000.0,0010.26,0005.39,0004.94
2022-10-11 18:51:00,,0820.4,4.99,0.00,29.9,27.8,00.0,38.5,31.8,08.0,0000.0,0009.95,0005.39,0004.93
2022-10-11 18:52:00,,0820.3,4.99,0.00,29.8,26.5,00.0,38.5,31.6,08.2,0000.0,0009.88,0005.40,0004.93
2022-10-11 18:53:00,,0820.4,5.01,0.00,29.8,26.4,00.0,38.4,31.5,08.4,0000.0,0010.12,0005.40,0004.92
2022-10-11 18:54:00,,0820.4,5.01,0.00,29.7,26.7,00.0,38.4,31.4,08.4,0000.0,0009.88,0005.35,0004.91
